TimeCST,TemperatureF,Dew PointF,Humidity,Sea Level PressureIn,VisibilityMPH,Wind Direction,Wind SpeedMPH,Gust SpeedMPH,PrecipitationIn,Events,Conditions,WindDirDegrees,DateUTC
1:53 AM,64.0,60.1,87,29.86,10.0,South,10.4,-,N/A,,Mostly Cloudy,190,2013-03-05 07:53:00
2:53 AM,64.0,60.1,87,29.86,10.0,South,10.4,-,N/A,,Overcast,180,2013-03-05 08:53:00
3:37 AM,62.6,60.8,94,29.85,10.0,South,10.4,-,N/A,,Overcast,190,2013-03-05 09:37:00
3:53 AM,64.0,60.1,87,29.86,10.0,South,10.4,-,N/A,,Overcast,190,2013-03-05 09:53:00
4:53 AM,64.0,61.0,90,29.89,9.0,SW,4.6,-,N/A,,Overcast,220,2013-03-05 10:53:00
5:53 AM,64.9,61.0,87,29.97,10.0,Variable,5.8,-,N/A,,Overcast,0,2013-03-05 11:53:00
6:53 AM,63.0,60.1,90,29.99,10.0,Variable,3.5,-,N/A,,Mostly Cloudy,0,2013-03-05 12:53:00
7:53 AM,66.9,61.0,81,30.01,10.0,West,4.6,-,N/A,,Clear,260,2013-03-05 13:53:00
8:44 AM,66.2,57.2,73,30.05,10.0,NW,16.1,27.6,N/A,,Overcast,310,2013-03-05 14:44:00
8:48 AM,66.2,57.2,73,30.05,10.0,NW,17.3,27.6,N/A,,Overcast,320,2013-03-05 14:48:00
8:53 AM,64.9,55.9,73,30.05,10.0,NW,19.6,26.5,N/A,,Overcast,310,2013-03-05 14:53:00
9:53 AM,63.0,48.9,60,30.10,10.0,NNW,16.1,28.8,N/A,,Overcast,330,2013-03-05 15:53:00
10:53 AM,64.9,45.0,48,30.11,10.0,North,15.0,-,N/A,,Partly Cloudy,360,2013-03-05 16:53:00
11:53 AM,68.0,45.0,43,30.13,10.0,NNW,17.3,-,N/A,,Clear,340,2013-03-05 17:53:00
12:53 PM,70.0,39.9,33,30.12,10.0,NNW,18.4,25.3,N/A,,Clear,340,2013-03-05 18:53:00
1:53 PM,71.1,37.9,30,30.11,10.0,NNW,17.3,25.3,N/A,,Clear,340,2013-03-05 19:53:00
2:53 PM,70.0,35.1,28,30.12,10.0,North,19.6,26.5,N/A,,Clear,350,2013-03-05 20:53:00
3:53 PM,70.0,32.0,25,30.13,10.0,North,15.0,-,N/A,,Clear,360,2013-03-05 21:53:00
4:53 PM,68.0,28.0,22,30.14,10.0,North,16.1,-,N/A,,Clear,10,2013-03-05 22:53:00
5:53 PM,63.0,28.9,28,30.16,10.0,North,10.4,-,N/A,,Clear,360,2013-03-05 23:53:00
6:53 PM,57.9,32.0,37,30.19,10.0,NNW,6.9,-,N/A,,Clear,330,2013-03-06 00:53:00
7:53 PM,54.0,32.0,43,30.22,10.0,NNW,8.1,-,N/A,,Clear,330,2013-03-06 01:53:00
8:53 PM,57.0,28.9,34,30.24,10.0,North,11.5,-,N/A,,Clear,350,2013-03-06 02:53:00
9:53 PM,55.0,27.0,34,30.26,10.0,NNW,16.1,25.3,N/A,,Clear,340,2013-03-06 03:53:00
10:53 PM,53.1,26.1,35,30.28,10.0,NNW,16.1,23.0,N/A,,Clear,340,2013-03-06 04:53:00
11:53 PM,50.0,27.0,41,30.29,10.0,North,13.8,20.7,N/A,,Clear,350,2013-03-06 05:53:00